Tracking 20621 objects as of 31-Mar-2020
HD Live streaming from Space Station
objects crossing your sky now

SL-16 DEB

Track SL-16 DEB now!
10-day predictions


NORAD ID: 16391
Int'l Code: 1985-097E
Perigee: 842.4 km
Apogee: 1,124.0 km
Inclination: 71.0 °
Period: 104.6 minutes
Semi major axis: 7354 km
RCS: 0.086 m2 (small)
Launch date: October 22, 1985
Source: Commonwealth of Independent States (former USSR) (CIS)
Launch site: TYURATAM MISSILE AND SPACE COMPLEX (TTMTR)

Note: This is SATELLITE DEBRIS
aabbcc
Your satellite tracking list
Your tracking list is empty




NASA's NSSDC Master Catalog

Two Line Element Set (TLE):
1 16391U 85097E   20090.73449479 -.00000008 +00000-0 +31520-4 0  9991
2 16391 070.9945 289.6767 0191445 197.7870 241.6904 13.76574780729444
Source of the keplerian elements: AFSPC